Weather History for Chandler, OK

Change the Weather History Date:

Sunday, March 10, 2013

  Actual Average (KCUH) Record (KCUH)
Temperature  
Mean Temperature 45 °F -  
Max Temperature 57 °F 61 °F 92 °F (1955)
Min Temperature 33 °F 36 °F -2 °F (1948)
Degree Days  
Heating Degree Days 20    
Moisture  
Dew Point 38 °F    
Average Humidity 86    
Maximum Humidity 100    
Minimum Humidity 63    
Precipitation  
Precipitation 0.00 in - - ()
Sea Level Pressure  
Sea Level Pressure 29.88 in    
Wind  
Wind Speed 11 mph (WNW)    
Max Wind Speed 20 mph    
Max Gust Speed 26 mph    
Visibility 10 miles    
Events Rain    
Averages and records for this station are not official NWS values.
T = Trace of Precipitation, MM = Missing Value Source: NWS Daily Summary

Daily Weather History Graph

Daily Weather History Graph

Search for Another Location

Airport:

Trip Planner

Search our weather history database for the weather conditions in past years. The results will help you decide how hot, cold, wet, or windy it might be!

Date:

Astronomy

Mar. 10, 2013 Rise Set
Actual Time 7:44 AM CDT 7:30 PM CDT
Civil Twilight 7:19 AM CDT 7:56 PM CDT
Nautical Twilight 6:49 AM CDT 8:25 PM CDT
Astronomical Twilight 6:19 AM CDT 8:55 PM CDT
Moon 6:44 AM CDT (3/10) 6:40 PM CDT (3/10)
Length of Visible Light 12h 37m
Length of Day
11h 46m
Waning Crescent, 2% of the Moon is Illuminated
Mar 10
Waning Crescent
Mar 11
New
Mar 19
First Quarter
Mar 27
Full
Apr 2
Last Quarter

Hourly Weather History & Observations

Time (CDT) Temp. Windchill Dew Point Humidity Pressure Visibility Wind Dir Wind Speed Gust Speed Precip Events Conditions
12:15 AM 57.2 °F - 57.2 °F 100% 29.73 in 10.0 mi SSW 11.5 mph - N/A   Overcast
12:35 AM 55.4 °F - 55.4 °F 100% 29.72 in 10.0 mi WSW 9.2 mph - N/A   Overcast
12:55 AM 57.2 °F - 57.2 °F 100% 29.70 in 10.0 mi SSW 10.4 mph - N/A   Mostly Cloudy
1:15 AM 57.2 °F - 53.6 °F 88% 29.69 in 10.0 mi SW 9.2 mph - N/A   Overcast
1:35 AM 55.4 °F - 51.8 °F 88% 29.68 in 10.0 mi SSW 8.1 mph - N/A   Overcast
1:55 AM 57.2 °F - 50.0 °F 77% 29.68 in 10.0 mi South 9.2 mph 16.1 mph N/A   Overcast
3:15 AM 57.2 °F - 46.4 °F 67% 29.68 in 10.0 mi South 19.6 mph 26.5 mph N/A Rain Rain
3:55 AM 57.2 °F - 44.6 °F 63% 29.65 in 10.0 mi South 9.2 mph 17.3 mph N/A Rain Light Rain
4:15 AM 55.4 °F - 44.6 °F 67% 29.66 in 10.0 mi WSW 8.1 mph - N/A   Overcast
4:35 AM 51.8 °F - 46.4 °F 82% 29.66 in 10.0 mi North - - N/A   Overcast
4:55 AM 48.2 °F - 44.6 °F 87% 29.71 in 10.0 mi North - - N/A   Mostly Cloudy
5:15 AM 46.4 °F 42.9 °F 42.8 °F 87% 29.66 in 10.0 mi North 6.9 mph - N/A   Mostly Cloudy
5:35 AM 46.4 °F 40.7 °F 42.8 °F 87% 29.75 in 10.0 mi WNW 12.7 mph - N/A   Scattered Clouds
5:55 AM 44.6 °F 38.8 °F 42.8 °F 93% 29.69 in 10.0 mi NW 11.5 mph - N/A   Scattered Clouds
6:15 AM 44.6 °F 38.8 °F 42.8 °F 93% 29.72 in 10.0 mi WNW 11.5 mph - N/A   Mostly Cloudy
6:35 AM 44.6 °F 38.4 °F 42.8 °F 93% 29.72 in 10.0 mi NW 12.7 mph - N/A   Overcast
6:55 AM 44.6 °F - 42.8 °F 93% 29.71 in 10.0 mi North - - N/A   Overcast
7:35 AM 44.6 °F - 41.0 °F 87% 29.76 in 10.0 mi North - - N/A   Overcast
7:55 AM 42.8 °F - 41.0 °F 93% 29.77 in 10.0 mi North - - N/A   Overcast
8:15 AM 42.8 °F - 41.0 °F 93% 29.75 in 10.0 mi North - - N/A   Overcast
8:35 AM 42.8 °F 37.0 °F 41.0 °F 93% 29.77 in 10.0 mi WNW 10.4 mph 18.4 mph N/A   Overcast
8:55 AM 42.8 °F 36.6 °F 41.0 °F 93% 29.77 in 10.0 mi NW 11.5 mph - N/A   Overcast
9:15 AM 42.8 °F - 41.0 °F 93% 29.78 in 10.0 mi North - - N/A   Overcast
9:35 AM 41.0 °F 32.5 °F 41.0 °F 100% 29.80 in 7.0 mi WNW 17.3 mph - N/A   Overcast
9:55 AM 41.0 °F 32.8 °F 41.0 °F 100% 29.82 in 4.0 mi WNW 16.1 mph - N/A   Light Drizzle
10:15 AM 41.0 °F - 41.0 °F 100% 29.82 in 10.0 mi North - - N/A   Overcast
10:35 AM 41.0 °F 33.5 °F 41.0 °F 100% 29.83 in 10.0 mi WNW 13.8 mph - N/A   Overcast
10:55 AM 41.0 °F - 39.2 °F 93% 29.83 in 10.0 mi North - - N/A   Overcast
11:15 AM 41.0 °F - 37.4 °F 87% 29.84 in 10.0 mi North - - N/A   Overcast
11:35 AM 41.0 °F - 37.4 °F 87% 29.85 in 10.0 mi North - - N/A   Overcast
11:55 AM 39.2 °F - 37.4 °F 93% 29.85 in 7.0 mi North - - N/A   Overcast
12:15 PM 41.0 °F - 37.4 °F 87% 29.86 in 10.0 mi North - - N/A   Overcast
12:35 PM 41.0 °F - 37.4 °F 87% 29.88 in 10.0 mi North - - N/A   Overcast
12:55 PM 41.0 °F - 35.6 °F 81% 29.88 in 10.0 mi North - - N/A   Overcast
1:15 PM 41.0 °F - 37.4 °F 87% 29.89 in 10.0 mi North - - N/A   Overcast
1:35 PM 41.0 °F - 37.4 °F 87% 29.90 in 7.0 mi North - - N/A   Overcast
1:55 PM 39.2 °F - 37.4 °F 93% 29.91 in 7.0 mi North - - N/A   Light Drizzle
2:15 PM 39.2 °F - 35.6 °F 87% 29.91 in 10.0 mi North - - N/A   Overcast
2:35 PM 39.2 °F - 33.8 °F 81% 29.92 in 10.0 mi North - - N/A   Overcast
2:55 PM 39.2 °F - 33.8 °F 81% 29.93 in 10.0 mi North - - N/A   Overcast
3:15 PM 39.2 °F - 33.8 °F 81% 29.94 in 10.0 mi North - - N/A   Overcast
3:35 PM 39.2 °F - 33.8 °F 81% 29.94 in 10.0 mi North - - N/A   Overcast
3:55 PM 41.0 °F - 32.0 °F 70% 29.94 in 10.0 mi North - - N/A   Overcast
4:15 PM 39.2 °F - 32.0 °F 75% 29.95 in 10.0 mi North - - N/A   Overcast
4:35 PM 39.2 °F - 32.0 °F 75% 29.95 in 10.0 mi North - - N/A   Overcast
4:55 PM 39.2 °F - 32.0 °F 75% 29.96 in 10.0 mi North - - N/A   Overcast
5:15 PM 37.4 °F - 32.0 °F 81% 29.97 in 10.0 mi North - - N/A   Overcast
5:35 PM 37.4 °F - 32.0 °F 81% 29.97 in 10.0 mi North - - N/A   Overcast
5:55 PM 37.4 °F - 32.0 °F 81% 29.98 in 10.0 mi North - - N/A   Overcast
6:15 PM 37.4 °F - 32.0 °F 81% 29.99 in 10.0 mi North - - N/A   Overcast
6:35 PM 37.4 °F - 32.0 °F 81% 29.99 in 10.0 mi North - - N/A   Overcast
6:55 PM 35.6 °F - 32.0 °F 87% 30.00 in 10.0 mi North - - N/A   Overcast
7:15 PM 35.6 °F - 32.0 °F 87% 30.01 in 10.0 mi North - - N/A   Overcast
7:35 PM 35.6 °F - 30.2 °F 81% 30.01 in 10.0 mi North - - N/A   Overcast
7:55 PM 35.6 °F - 30.2 °F 81% 30.02 in 10.0 mi North - - N/A   Overcast
8:15 PM 35.6 °F 27.1 °F 30.2 °F 81% 30.02 in 10.0 mi NNW 12.7 mph - N/A   Overcast
8:35 PM 35.6 °F - 30.2 °F 81% 30.03 in 10.0 mi North - - N/A   Overcast
8:55 PM 35.6 °F 29.2 °F 30.2 °F 81% 30.04 in 10.0 mi NW 8.1 mph - N/A   Overcast
9:15 PM 35.6 °F - 30.2 °F 81% 30.04 in 10.0 mi North - - N/A   Overcast
9:35 PM 35.6 °F 27.5 °F 30.2 °F 81% 30.05 in 10.0 mi NW 11.5 mph - N/A   Overcast
9:55 PM 35.6 °F - 30.2 °F 81% 30.05 in 10.0 mi North - - N/A   Overcast
10:15 PM 35.6 °F 29.2 °F 30.2 °F 81% 30.06 in 10.0 mi NW 8.1 mph - N/A   Overcast
10:35 PM 35.6 °F - 30.2 °F 81% 30.06 in 10.0 mi North - - N/A   Overcast
10:55 PM 33.8 °F 25.8 °F 30.2 °F 87% 30.06 in 10.0 mi NW 10.4 mph - N/A   Mostly Cloudy
11:15 PM 33.8 °F 27.0 °F 30.2 °F 87% 30.06 in 10.0 mi WNW 8.1 mph - N/A   Mostly Cloudy
11:35 PM 33.8 °F 27.0 °F 32.0 °F 93% 30.06 in 10.0 mi NW 8.1 mph - N/A   Overcast
12:15 AM 35.6 °F 29.2 °F 32.0 °F 87% 30.06 in 10.0 mi NW 8.1 mph - N/A   Overcast
12:35 AM 35.6 °F 28.6 °F 32.0 °F 87% 30.05 in 10.0 mi NW 9.2 mph - N/A   Overcast
12:55 AM 35.6 °F 29.9 °F 32.0 °F 87% 30.05 in 10.0 mi NW 6.9 mph - N/A   Overcast